Flag for Canada Weather past 2 weeks in Riverview, New Brunswick, Canada

Now
72 °F

Partly sunny.


Feels Like: 76 °F
Forecast: 55 / 76 °F
Wind: 18 mph from Southwest

Location: Moncton

Current Time: Sep 21, 2014 at 2:08:29 PM

Latest Report: Sep 21, 2014 at 1:00 PM


Visibility: 15 mi

Pressure: 29.95 "Hg

Humidity: 57%

Dew point: 55 °F

Location of RiverviewLocation

Historic Weather in Riverview — Graph

°F

Riverview temperature yesterday

Maximum temperature yesterday: 59 °F (at 4:00 PM)
Minimum temperature yesterday: 36 °F (at 12:00 AM)
Average temperature yesterday: 48 °F

Past Weeks' High & Low Weather Summary

 TemperatureHumidityPressure
High84 °F (Sep 6, 2:00 PM)100% (Sep 6, 9:56 PM)30.47 "Hg (Sep 6, 9:56 PM)
Low34 °F (Sep 19, 8:00 AM)24% (Sep 8, 3:00 PM)29.65 "Hg (Sep 6, 6:00 PM)
Average55 °F71%30.07 "Hg
* Reported Sep 6 1:00 PM — Sep 21 1:00 PM, Riverview, Weather by CustomWeather, © 2014

Note: Actual official high and low records may vary slightly from our data, if they occured in-between our weather recording intervals... More about our weather records

Advertising

Riverview weather history for previous 24 hours

 ConditionsComfort  
Time TempWeatherWind HumidityBarometerVisibility
1:00 PM
Sep 21
72 °FPartly sunny.18 mph57%29.95 "Hg15 mi
12:00 PM72 °FScattered clouds.24 mph57%29.96 "Hg15 mi
11:00 AM70 °FPassing clouds.25 mph57%29.97 "Hg15 mi
10:00 AM66 °FPassing clouds.20 mph64%29.96 "Hg15 mi
9:00 AM61 °FPassing clouds.12 mph77%29.96 "Hg15 mi
8:00 AM55 °FPassing clouds.8 mph88%29.96 "Hg15 mi
7:00 AM57 °FPassing clouds.10 mph82%29.98 "Hg15 mi
6:00 AM57 °FPassing clouds.13 mph82%29.99 "Hg15 mi
5:00 AM57 °FPassing clouds.14 mph82%30.01 "Hg15 mi
4:00 AM57 °FPassing clouds.12 mph77%30.02 "Hg15 mi
3:00 AM57 °FPassing clouds.12 mph77%30.02 "Hg15 mi
2:00 AM55 °FPassing clouds.10 mph82%30.03 "Hg15 mi
1:00 AM57 °FPassing clouds.16 mph77%30.02 "Hg15 mi
12:00 AM57 °FPassing clouds.14 mph77%30.06 "Hg15 mi
11:00 PM
Sep 20
55 °FPassing clouds.17 mph77%30.06 "Hg15 mi
10:00 PM55 °FPartly cloudy.14 mph77%30.07 "Hg15 mi
9:00 PM55 °FPartly cloudy.18 mph72%30.08 "Hg15 mi
8:00 PM55 °FPartly sunny.17 mph72%30.08 "Hg15 mi
7:00 PM55 °FPartly sunny.18 mph67%30.10 "Hg15 mi
6:46 PM55 °FMostly cloudy.18 mph67%30.10 "Hg15 mi
6:00 PM55 °FSprinkles. Overcast.18 mph63%30.11 "Hg15 mi
5:00 PM55 °FMostly cloudy.18 mph59%30.12 "Hg15 mi
4:00 PM59 °FMostly cloudy.23 mph48%30.14 "Hg15 mi
3:00 PM57 °FMostly cloudy.25 mph51%30.15 "Hg15 mi
2:00 PM57 °FOvercast.25 mph48%30.16 "Hg15 mi
Weather by CustomWeather, © 2014

See weather overviewHow to use our weather pages